Regional Weather Roundup
Issued by NWS

Home | Current Version | Previous Version | Graphics & Text | Print | Product List | Glossary Off
Versions: 1 2 3 4 5 6 7 8 9 10 11 12 13 14 15 16 17 18 19 20 21 22 23 24 25 26 27 28 29 30 31 32 33 34 35 36 37 38 39 40 41 42 43 44 45 46 47 48 49 50

000
ASUS43 KDMX 221106
RWRIA

WEATHER ROUNDUP FOR IOWA
NATIONAL WEATHER SERVICE DES MOINES IA
500 AM CST WED NOV 22 2017

NOTE: "FAIR" INDICATES FEW OR NO CLOUDS BELOW 12,000 FEET WITH NO
SIGNIFICANT WEATHER AND/OR OBSTRUCTIONS TO VISIBILITY.

* - THESE STATIONS ARE NOT NWS STATIONS...THUS NOT UNDER NWS
QUALITY CONTROL.  THEY ALSO DO NOT REPORT WEATHER SUCH
AS PRECIPITATION OR FOG.

IAZ001>003-012>014-020>022-031>034-043>046-221200-
   NORTHWEST IOWA

CITY           SKY/WX    TMP DP  RH WIND       PRES   REMARKS
CARROLL *      CLOUDY    12   9  85 CALM      30.37F
CHEROKEE *     CLOUDY    11   9  92 CALM      30.36S
DENISON *      CLOUDY    12  10  92 CALM      30.38F
LE MARS *      CLOUDY    10   9  92 CALM      30.36S
ORANGE CITY *  CLOUDY    12   9  85 CALM      30.34S
SHELDON *      CLOUDY     9   5  85 CALM      30.32F
SIOUX CITY     CLOUDY    12   8  84 CALM      30.38S
SPENCER        CLOUDY     9   6  88 S3        30.34F
STORM LAKE *   CLOUDY    10   7  85 CALM      30.34F
$$

IAZ055>058-069>071-079>083-090>094-221200-
   SOUTHWEST IOWA

CITY           SKY/WX    TMP DP  RH WIND       PRES   REMARKS
ATLANTIC *     CLOUDY    12  10  92 CALM      30.38S
AUDUBON *      CLOUDY    12   9  85 CALM      30.37R
CLARINDA *       N/A     12  12 100 CALM      30.42S
COUNCIL BLFS * CLOUDY    16  12  86 W5        30.38S WCI   9
CRESTON *      CLOUDY    16  12  86 N3        30.38S
HARLAN  *      CLOUDY    12  10  92 CALM      30.41S
RED OAK *      CLOUDY    12   9  85 CALM      30.40R
SHENANDOAH *   CLOUDY    14  12  92 CALM      30.42R
$$

IAZ047>049-059>061-072>074-084-221200-
   CENTRAL IOWA

CITY           SKY/WX    TMP DP  RH WIND       PRES   REMARKS
AMES           CLOUDY    16  11  80 NW3       30.38R
ANKENY *       CLOUDY    18  10  73 CALM      30.41S
BOONE *        CLOUDY    16  10  79 W5        30.37R WCI   9
CHARITON *     CLOUDY    16  12  86 NW6       30.38S WCI   7
DES MOINES     CLOUDY    19  11  70 NW5       30.40R WCI  12
GRINNELL*      PTCLDY    15  12  87 NW3       30.39R
KNOXVILLE *    CLOUDY    18  10  73 N5        30.37F WCI  11
MARSHALLTOWN   CLOUDY    14  10  84 NW6       30.37R WCI   5
NEWTON *       PTCLDY    16  12  86 CALM      30.39R
PELLA *        CLOUDY    17  12  80 NW5       30.41S WCI  10
PERRY *          N/A     13  10  87 W7        30.39R WCI   2
$$

IAZ004>006-015-016-023>025-035-036-221200-
   NORTH CENTRAL IOWA

CITY           SKY/WX    TMP DP  RH WIND       PRES   REMARKS
ALGONA *       CLOUDY    12   9  85 W7        30.35S WCI   2
CLARION *      CLOUDY    12  10  92 CALM      30.36F
ESTHERVILLE    CLOUDY     8   6  92 W6        30.34F WCI  -2
FORT DODGE *   CLOUDY    14   9  80 W3        30.37S
MASON CITY     CLOUDY    12   8  84 NW6       30.36R WCI   3
FOREST CITY *    N/A     16  12  86 N3        30.33F
WEBSTER CITY * CLOUDY    12   7  79 W7        30.35S WCI   2
IOWA FALLS *     N/A     14  10  87 W5        30.37S WCI   6
$$

IAZ007>011-017>019-026>030-037>042-050>054-066-221200-
   NORTHEAST IOWA

CITY           SKY/WX    TMP DP  RH WIND       PRES   REMARKS
CEDAR RAPIDS   CLOUDY    14  10  84 CALM      30.36R
CHARLES CITY * CLOUDY    14  12  92 NW6       30.35S WCI   5
CLINTON *      CLOUDY    15  12  88 NW8       30.36R WCI   4
DECORAH *      CLOUDY    16  12  86 NW7       30.31S WCI   6
DUBUQUE        CLOUDY    17  12  80 CALM      30.33R
MONTICELLO *   CLOUDY    16  12  86 W3        30.35S
OELWEIN *      CLOUDY    14  14 100 NW7       30.35R WCI   4
WATERLOO       CLOUDY    14  10  84 W6        30.37R WCI   5
$$

IAZ064-065-067-068-078-221200-
   EAST CENTRAL IOWA

CITY           SKY/WX    TMP DP  RH WIND       PRES   REMARKS
DAVENPORT      CLOUDY    18  13  80 W5        30.39R WCI  11
IOWA CITY      CLOUDY    20  13  74 NW3       30.40R
MT. PLEASANT * CLOUDY    19  13  79 W5        30.39R WCI  12
MUSCATINE *    CLOUDY    19  14  79 NW6       30.39S WCI  11
QUAD CITIES    CLOUDY    20  12  71 W3        30.38R
$$

IAZ062-063-075>077-085>089-095>099-221200-
   SOUTHEAST IOWA

CITY           SKY/WX    TMP DP  RH WIND       PRES   REMARKS
BURLINGTON     CLOUDY    20  15  81 NW3       30.38R
FAIRFIELD *    CLOUDY    18  10  73 W7        30.38R WCI   8
FORT MADISON * CLOUDY    18  16  93 NW3       30.39R
KEOKUK *       PTCLDY    21  14  73 NW5       30.39R WCI  15
OSKALOOSA *      N/A     15  12  88 NW5       30.41R WCI   7
CENTERVILLE *    N/A     18  14  86 CALM      30.40R
OTTUMWA        CLOUDY    17  11  77 NW9       30.40R WCI   6
WASHINGTON *   CLOUDY    16  14  93 NW5       30.39S WCI   9
$$

ABBREVIATIONS USED IN REMARKS
   TC - TEMPERATURES IN CELSIUS
  WCI - WIND CHILL INDEX
   HX - HEAT INDEX
  VSB - VISIBILITY
$$





USA.gov is the U.S. government's official web portal to all federal, state and local government web resources and services.